Location: Decatur Area Astronomy Club
(40.0275°N, 88.7810°W)
Time: 05:50:59
(UTC-06:00)

Amateur Radio Satellites - All Passes

Search period start: 08 December 2016 05:20
Search period end: 09 December 2016 05:20
Location: Decatur Area Astronomy Club, 40.0275°N, 88.7810°W

Satellite Date Start Highest point End Downlink Frequencies (MHz)
Time Altitude Azimuth
CUBESAT XI-V 08 Dec 05:24:06 05:26:46 15° 269° (W) 05:29:27 437.345
YUBILEINY 08 Dec 05:29:05 05:37:49 59° 78° (ENE) 05:46:28 435.215
SO-50 08 Dec 05:29:57 05:33:04 19° 250° (WSW) 05:36:10 436.795
CUTE-I 08 Dec 05:43:00 05:47:54 36° 97° (E) 05:52:45 437.470
RS-15 08 Dec 05:47:19 05:57:38 39° 105° (ESE) 06:08:21 29.354- 29.394
BEESAT 3 08 Dec 05:47:39 05:49:41 14° 317° (NW) 05:51:45 437.485
Cosmos 2491 08 Dec 05:57:01 06:05:14 47° 88° (E) 06:13:26 435.465 / 435.565
NOAA 15 08 Dec 05:58:04 06:03:16 56° 101° (E) 06:08:27 137.62
Cubesat XI-IV 08 Dec 06:09:27 06:14:46 64° 101° (E) 06:20:02 437.490
LilacSat-2 08 Dec 06:10:34 06:14:21 86° 102° (ESE) 06:18:06 437.200
NOAA 18 08 Dec 06:11:29 06:16:42 41° 99° (E) 06:21:51 137.9125
AIST 1 08 Dec 06:15:45 06:20:07 57° 80° (E) 06:24:26
DOVE 4 08 Dec 06:19:57 06:25:16 74° 101° (ESE) 06:30:21 437.250
GOMX 1 08 Dec 06:21:17 06:26:34 50° 288° (WNW) 06:31:49 467.674
BEESAT 2 08 Dec 06:21:51 06:23:52 13° 318° (NW) 06:25:52 435.950
HO-68 08 Dec 06:25:09 06:29:57 19° 91° (E) 06:34:42 435.675
AO-7 08 Dec 06:28:25 06:31:43 13° 315° (NW) 06:35:01 29.400- 29.500
HORYU 2 08 Dec 06:33:30 06:36:35 19° 295° (WNW) 06:39:39 437.375
STRAND 1 08 Dec 06:39:34 06:44:41 71° 258° (WSW) 06:49:50 437.568
CUTE 1.7 + AOD 2 08 Dec 06:49:29 06:52:32 19° 93° (E) 06:55:35 437.475
BRITE-PL 08 Dec 06:59:52 07:01:55 12° 299° (WNW) 07:03:58 437.365/2234.400
Cosmos 2504 08 Dec 07:04:41 07:13:26 75° 267° (W) 07:21:37 435.465 / 435.565
CANX-2 08 Dec 07:07:20 07:11:14 35° 97° (E) 07:15:08 2200.000
PRISM 08 Dec 07:11:44 07:14:04 15° 65° (ENE) 07:16:25 437.425
CINEMA 3 08 Dec 07:21:34 07:26:22 79° 102° (ESE) 07:30:54 145.822/145.860
CUTE-I 08 Dec 07:23:18 07:27:47 28° 294° (WNW) 07:32:14 437.470
CUBEBUG 2 08 Dec 07:24:32 07:27:37 19° 92° (E) 07:30:38 437.445
YUBILEINY 08 Dec 07:26:47 07:34:00 30° 277° (W) 07:41:14 435.215
SEEDS 08 Dec 07:27:48 07:31:39 35° 98° (E) 07:35:29 437.485
AIST 2 08 Dec 07:29:24 07:33:30 79° 302° (WNW) 07:37:41 435.215
COMPASS 1 08 Dec 07:33:50 07:37:24 27° 96° (E) 07:40:57 437.405
NOAA 15 08 Dec 07:38:57 07:42:36 19° 297° (WNW) 07:46:13 137.62
Cubesat XI-IV 08 Dec 07:50:56 07:54:17 17° 298° (WNW) 07:57:37 437.490
NOAA 18 08 Dec 07:52:33 07:57:07 27° 295° (WNW) 08:01:38 137.9125
Cosmos 2491 08 Dec 07:54:12 08:02:10 38° 288° (WNW) 08:10:09 435.465 / 435.565
AIST 1 08 Dec 07:55:42 07:57:08 11° 276° (W) 07:58:33
RS-15 08 Dec 07:57:43 08:09:24 65° 308° (NW) 08:21:42 29.354- 29.394
DOVE 4 08 Dec 07:59:24 08:02:14 15° 298° (WNW) 08:05:01 437.250
UWE-3 08 Dec 08:01:21 08:05:09 30° 96° (E) 08:08:49 435.000/436.395/437.385
HO-68 08 Dec 08:11:07 08:18:20 77° 288° (WNW) 08:25:30 435.675
CUTE 1.7 + AOD 2 08 Dec 08:24:39 08:28:26 33° 289° (WNW) 08:32:14 437.475
UNISAT 6 08 Dec 08:26:36 08:30:22 25° 68° (ENE) 08:34:08 437.425
AAUSAT CUBESAT 2 08 Dec 08:36:04 08:40:12 72° 285° (WNW) 08:44:20 437.432
ZACube-1 08 Dec 08:36:43 08:40:47 46° 99° (E) 08:44:45 437.345
FUNcube-1 08 Dec 08:42:58 08:47:03 50° 99° (E) 08:51:03 145.935
CANX-2 08 Dec 08:43:52 08:46:49 19° 293° (WNW) 08:49:47 2200.000
PRISM 08 Dec 08:45:06 08:48:59 43° 261° (W) 08:52:54 437.425
JAS-2 08 Dec 08:48:03 08:50:17 12° 60° (ENE) 08:52:27 435.910
DANDE 08 Dec 08:52:52 08:55:37 16° 95° (E) 08:58:00 436.750
TIGRISAT 08 Dec 08:55:00 08:59:27 45° 72° (ENE) 09:03:52 435.000
ANTELSAT 08 Dec 08:57:03 09:01:34 50° 73° (ENE) 09:06:03 437.575/2403.000
CUBEBUG 2 08 Dec 09:00:23 09:04:22 35° 289° (WNW) 09:08:12 437.445
CINEMA 3 08 Dec 09:01:13 09:02:43 11° 300° (WNW) 09:04:12 145.822/145.860
Cosmos 2504 08 Dec 09:01:32 09:05:07 13° 286° (WNW) 09:08:38 435.465 / 435.565
SEEDS 08 Dec 09:04:08 09:07:05 19° 293° (WNW) 09:10:01 437.485
COMPASS 1 08 Dec 09:09:30 09:12:50 23° 291° (WNW) 09:16:09 437.405
Oscar 11 08 Dec 09:10:15 09:14:34 81° 283° (WNW) 09:18:52 145.826/435.025
AIST 2 08 Dec 09:11:43 09:12:42 11° 321° (NW) 09:13:40 435.215
DELFI C3 08 Dec 09:13:23 09:17:06 36° 98° (E) 09:20:48 145.870
CUSAT 1 08 Dec 09:24:48 09:27:35 32° 282° (WNW) 09:30:03 437.405
AO-85 08 Dec 09:32:17 09:35:53 32° 51° (NE) 09:39:23 145.980
UWE-3 08 Dec 09:38:09 09:41:25 22° 293° (WNW) 09:44:36 435.000/436.395/437.385
PCSat 08 Dec 09:41:00 09:45:01 22° 106° (ESE) 09:49:03 145.827
HUMSAT D 08 Dec 09:42:47 09:46:39 41° 98° (E) 09:50:29 437.325/437.525
Cosmos 2499 08 Dec 09:57:36 10:04:07 23° 65° (ENE) 10:10:16 435.465 / 435.565
HO-68 08 Dec 10:01:06 10:04:53 15° 307° (NW) 10:08:39 435.675
UNISAT 6 08 Dec 10:02:42 10:06:54 33° 263° (W) 10:11:06 437.425
GONETS M04 08 Dec 10:07:38 10:14:35 26° 67° (ENE) 10:21:31
NANOSAT C BR1 08 Dec 10:07:46 10:11:25 28° 70° (ENE) 10:15:06 145.865
ZACube-1 08 Dec 10:14:19 10:16:38 15° 295° (WNW) 10:18:57 437.345
RS-15 08 Dec 10:15:24 10:25:03 26° 337° (NNW) 10:34:54 29.354- 29.394
QB50P2 08 Dec 10:15:43 10:19:43 40° 72° (ENE) 10:23:45 145.880/145.840
POLYITAN 1 08 Dec 10:16:13 10:20:12 38° 71° (ENE) 10:24:11 437.675
FUNcube-1 08 Dec 10:20:45 10:22:50 14° 296° (WNW) 10:24:53 145.935
DUCHIFAT 1 08 Dec 10:28:11 10:32:13 44° 72° (ENE) 10:36:17 145.980
QB50P1 08 Dec 10:28:12 10:32:21 52° 73° (ENE) 10:36:31 145.935-145.965
JAS-2 08 Dec 10:28:15 10:34:42 84° 75° (ENE) 10:40:25 435.910
TIGRISAT 08 Dec 10:33:09 10:36:18 18° 267° (W) 10:39:28 435.000
DANDE 08 Dec 10:34:32 10:38:12 26° 281° (W) 10:41:11 436.750
ANTELSAT 08 Dec 10:35:39 10:38:30 16° 268° (W) 10:41:21 437.575/2403.000
DELFI C3 08 Dec 10:49:04 10:51:36 17° 293° (WNW) 10:54:09 145.870
POPSAT HIP 1 08 Dec 10:49:50 10:54:08 89° 259° (W) 10:58:27 437.405
AO-85 08 Dec 11:13:11 11:16:02 20° 248° (WSW) 11:18:51 145.980
50 SAT 08 Dec 11:14:19 11:16:36 16° 94° (E) 11:18:54 437.505
BUGSAT 1 08 Dec 11:14:29 11:18:37 56° 74° (ENE) 11:22:48 437.445
Oscar 19 08 Dec 11:19:22 11:22:45 18° 63° (ENE) 11:26:09 437.125/150
HUMSAT D 08 Dec 11:19:30 11:21:55 15° 294° (WNW) 11:24:19 437.325/437.525
PCSat 08 Dec 11:22:46 11:28:01 51° 303° (WNW) 11:33:18 145.827
AISAT 08 Dec 11:32:47 11:37:00 39° 98° (E) 11:41:10 437.250
Gurwin Techsat 1B 08 Dec 11:36:57 11:39:37 14° 60° (ENE) 11:42:18 435.225
ESTCUBE 1 08 Dec 11:37:00 11:41:32 77° 284° (WNW) 11:46:03 437.505/2401.250
NANOSAT C BR1 08 Dec 11:43:41 11:47:06 23° 265° (W) 11:50:33 145.865
Cosmos 2499 08 Dec 11:49:38 11:58:08 72° 267° (W) 12:05:57 435.465 / 435.565
CUBEBUG 1 08 Dec 11:51:47 11:56:15 86° 280° (W) 12:00:41 437.445
QB50P2 08 Dec 11:52:54 11:55:40 17° 267° (W) 11:58:27 145.880/145.840
POLYITAN 1 08 Dec 11:53:13 11:56:06 18° 267° (W) 11:59:01 437.675
GONETS M04 08 Dec 12:03:29 12:12:07 68° 267° (W) 12:20:45
DUCHIFAT 1 08 Dec 12:05:37 12:08:05 15° 268° (W) 12:10:35 145.980
QB50P1 08 Dec 12:06:26 12:08:24 13° 269° (W) 12:10:22 145.935-145.965
VELOX 1 08 Dec 12:09:19 12:13:49 86° 278° (W) 12:18:16 145.980
DX 1 08 Dec 12:13:58 12:18:18 55° 101° (E) 12:22:36 434.975-435.025
UKube-1 08 Dec 12:16:02 12:20:10 42° 99° (E) 12:24:16 .
JAS-2 08 Dec 12:17:28 12:20:12 13° 269° (W) 12:22:49 435.910
SPROUT 08 Dec 12:23:05 12:27:24 88° 281° (W) 12:31:39 437.525
BEESAT 3 08 Dec 12:25:28 12:29:02 31° 51° (NE) 12:32:36 437.485
RS-15 08 Dec 12:34:27 12:43:36 23° 14° (NNE) 12:52:43 29.354- 29.394
50 SAT 08 Dec 12:46:51 12:49:56 28° 289° (WNW) 12:53:00 437.505
BUGSAT 1 08 Dec 12:52:42 12:54:19 12° 269° (W) 12:55:56 437.445
Oscar 19 08 Dec 12:56:35 13:01:36 56° 260° (W) 13:06:40 437.125/150
BEESAT 2 08 Dec 13:00:13 13:03:54 33° 52° (NE) 13:07:33 435.950
AISAT 08 Dec 13:09:58 13:13:10 19° 294° (WNW) 13:16:21 437.250
Gurwin Techsat 1B 08 Dec 13:13:33 13:18:52 78° 257° (WSW) 13:24:13 435.225
ITAMSAT 1 08 Dec 13:31:05 13:35:48 36° 68° (ENE) 13:40:32 435.822/435.867
TISAT 1 08 Dec 13:35:30 13:39:44 87° 286° (WNW) 13:43:56 437.305
AO-7 08 Dec 13:38:37 13:46:14 42° 62° (ENE) 13:53:52 29.400- 29.500
ITUPSAT 1 08 Dec 13:42:36 13:46:04 20° 94° (E) 13:49:32 437.325
Cosmos 2499 08 Dec 13:46:45 13:49:28 12° 287° (WNW) 13:52:08 435.465 / 435.565
DX 1 08 Dec 13:51:43 13:54:00 14° 297° (WNW) 13:56:18 434.975-435.025
UKube-1 08 Dec 13:53:00 13:55:51 17° 295° (WNW) 13:58:42 .
ISS 08 Dec 14:00:04 14:02:05 15° 130° (SE) 14:04:07 145.825
BEESAT 3 08 Dec 14:03:22 14:06:31 22° 248° (WSW) 14:09:38 437.485
GONETS M04 08 Dec 14:05:05 14:07:09 11° 287° (WNW) 14:09:13
AUBIESAT-1 08 Dec 14:10:12 14:14:05 27° 100° (E) 14:17:46 437.475
O/OREOS (USA 219) 08 Dec 14:20:21 14:23:39 20° 101° (E) 14:26:57 437.305
M-CUBED/EXP-1 PRIME 08 Dec 14:24:22 14:28:54 49° 104° (ESE) 14:33:10 437.505
BEESAT 2 08 Dec 14:38:24 14:41:29 21° 248° (WSW) 14:44:34 435.950
SWISSCUBE 08 Dec 14:46:04 14:50:50 79° 284° (WNW) 14:55:33 437.505
RS-15 08 Dec 14:48:19 15:00:16 50° 45° (NE) 15:11:51 29.354- 29.394
BEESAT 08 Dec 14:49:48 14:54:34 81° 285° (WNW) 14:59:19 436.000
BRITE-PL 08 Dec 14:55:17 14:56:01 10° 59° (ENE) 14:56:45 437.365/2234.400
ITAMSAT 1 08 Dec 15:10:55 15:15:17 27° 264° (W) 15:19:41 435.822/435.867
ITUPSAT 1 08 Dec 15:19:35 15:24:02 41° 290° (WNW) 15:28:29 437.325
AO-7 08 Dec 15:31:06 15:38:54 44° 260° (W) 15:46:47 29.400- 29.500
MOZHAYETS 4 08 Dec 15:31:30 15:36:03 71° 101° (ESE) 15:40:36
ISS 08 Dec 15:35:03 15:38:17 55° 327° (NNW) 15:41:32 145.825
STARS 08 Dec 15:41:15 15:43:56 16° 93° (E) 15:46:35 437.465
KKS-1 08 Dec 15:41:54 15:46:01 35° 98° (E) 15:50:06 437.445
NOAA 15 08 Dec 15:42:33 15:43:47 11° 58° (ENE) 15:45:01 137.62
CUBESAT XI-V 08 Dec 15:43:25 15:45:39 13° 91° (E) 15:47:52 437.345
AUBIESAT-1 08 Dec 15:44:27 15:48:23 29° 297° (WNW) 15:52:11 437.475
AIST 2 08 Dec 15:51:14 15:55:23 53° 55° (NE) 15:59:31 435.215
GOMX 1 08 Dec 15:52:11 15:55:27 19° 64° (ENE) 15:58:51 467.674
HORYU 2 08 Dec 15:53:22 15:57:26 35° 70° (ENE) 16:01:30 437.375
Cubesat XI-IV 08 Dec 15:54:21 15:56:47 13° 59° (ENE) 15:59:14 437.490
O/OREOS (USA 219) 08 Dec 15:58:31 16:02:45 38° 297° (WNW) 16:07:01 437.305
M-CUBED/EXP-1 PRIME 08 Dec 15:59:43 16:02:55 19° 301° (WNW) 16:06:02 437.505
NOAA 18 08 Dec 16:01:52 16:02:48 10° 56° (NE) 16:03:45 137.9125
Cosmos 2491 08 Dec 16:08:43 16:15:07 22° 65° (ENE) 16:21:27 435.465 / 435.565
BRITE-PL 08 Dec 16:29:22 16:33:41 79° 259° (WSW) 16:38:22 437.365/2234.400
YUBILEINY 08 Dec 16:40:10 16:42:21 11° 73° (ENE) 16:44:32 435.215
LilacSat-2 08 Dec 16:51:41 16:55:13 36° 72° (ENE) 16:58:45 437.200
HO-68 08 Dec 16:55:21 16:58:56 15° 52° (NE) 17:02:30 435.675
RS-15 08 Dec 17:01:11 17:13:00 56° 249° (WSW) 17:24:24 29.354- 29.394
CUTE-I 08 Dec 17:03:58 17:09:13 56° 72° (ENE) 17:14:28 437.470
MOZHAYETS 4 08 Dec 17:10:56 17:12:37 12° 298° (WNW) 17:14:17
ISS 08 Dec 17:13:22 17:15:21 15° 345° (NNW) 17:17:20 145.825
STARS 08 Dec 17:16:16 17:20:30 45° 288° (WNW) 17:24:41 437.465
NOAA 15 08 Dec 17:17:28 17:22:42 83° 75° (ENE) 17:27:58 137.62
CUBESAT XI-V 08 Dec 17:18:47 17:23:23 60° 286° (WNW) 17:27:59 437.345
KKS-1 08 Dec 17:18:57 17:22:20 21° 294° (WNW) 17:25:42 437.445
DOVE 4 08 Dec 17:24:03 17:28:50 66° 74° (ENE) 17:33:56 437.250
GOMX 1 08 Dec 17:28:38 17:33:04 47° 262° (W) 17:37:52 467.674
HORYU 2 08 Dec 17:30:39 17:34:02 21° 265° (W) 17:37:27 437.375
Cubesat XI-IV 08 Dec 17:30:43 17:36:06 85° 255° (WSW) 17:41:31 437.490
AIST 2 08 Dec 17:31:10 17:33:25 14° 251° (WSW) 17:35:39 435.215
NOAA 18 08 Dec 17:36:57 17:42:28 74° 73° (ENE) 17:48:02 137.9125
CUTE 1.7 + AOD 2 08 Dec 17:42:38 17:44:42 13° 65° (ENE) 17:46:45 437.475
Cosmos 2504 08 Dec 17:51:23 17:56:43 19° 77° (ENE) 18:02:11 435.465 / 435.565
CANX-2 08 Dec 17:59:46 18:03:08 24° 69° (ENE) 18:06:30 2200.000
SO-50 08 Dec 18:03:23 18:06:30 17° 110° (ESE) 18:09:36 436.795
Cosmos 2491 08 Dec 18:04:12 18:12:55 79° 266° (W) 18:21:36 435.465 / 435.565
SEEDS 08 Dec 18:19:11 18:22:27 23° 69° (ENE) 18:25:43 437.485
CINEMA 3 08 Dec 18:21:26 18:26:20 66° 74° (ENE) 18:31:20 145.822/145.860
CUBEBUG 2 08 Dec 18:21:55 18:25:03 18° 65° (ENE) 18:28:09 437.445
COMPASS 1 08 Dec 18:24:37 18:27:21 17° 67° (ENE) 18:30:05 437.405
LilacSat-2 08 Dec 18:27:26 18:29:38 15° 268° (W) 18:31:49 437.200
YUBILEINY 08 Dec 18:28:45 18:37:20 69° 93° (E) 18:46:01 435.215
PCSat 08 Dec 18:28:46 18:32:31 19° 45° (NE) 18:36:15 145.827
HO-68 08 Dec 18:38:19 18:45:26 75° 71° (ENE) 18:52:38 435.675
AIST 1 08 Dec 18:44:23 18:48:17 34° 91° (E) 18:52:13
CUTE-I 08 Dec 18:46:02 18:49:35 18° 268° (W) 18:53:09 437.470
STRAND 1 08 Dec 18:50:51 18:55:40 40° 98° (E) 19:00:26 437.568
ISS 08 Dec 18:51:43 18:52:58 12° 5° (N) 18:54:12 145.825
UWE-3 08 Dec 18:57:23 19:01:12 26° 69° (ENE) 19:04:59 435.000/436.395/437.385
NOAA 15 08 Dec 19:01:43 19:03:05 11° 271° (W) 19:04:27 137.62
DOVE 4 08 Dec 19:04:41 19:07:03 13° 272° (W) 19:09:29 437.250
CUTE 1.7 + AOD 2 08 Dec 19:15:59 19:20:05 52° 261° (W) 19:24:12 437.475
NOAA 18 08 Dec 19:20:49 19:23:39 14° 269° (W) 19:26:30 137.9125
AAUSAT CUBESAT 2 08 Dec 19:25:09 19:29:12 66° 75° (ENE) 19:33:17 437.432
ZACube-1 08 Dec 19:31:25 19:35:31 35° 71° (ENE) 19:39:36 437.345
CANX-2 08 Dec 19:35:16 19:38:52 27° 264° (W) 19:42:27 2200.000
FUNcube-1 08 Dec 19:37:19 19:41:29 37° 72° (ENE) 19:45:35 145.935
Cosmos 2504 08 Dec 19:40:23 19:48:48 87° 278° (W) 19:57:43 435.465 / 435.565
SO-50 08 Dec 19:41:53 19:46:33 54° 306° (NW) 19:51:12 436.795
CUSAT 1 08 Dec 19:54:04 19:58:03 90° 236° (WSW) 20:03:20 437.405
SEEDS 08 Dec 19:54:24 19:58:00 28° 264° (W) 20:01:36 437.485
CUBEBUG 2 08 Dec 19:56:39 20:01:16 49° 261° (W) 20:05:50 437.445
COMPASS 1 08 Dec 19:58:46 20:02:36 37° 263° (W) 20:06:26 437.405
DELFI C3 08 Dec 19:59:00 20:01:50 20° 68° (ENE) 20:04:42 145.870
CINEMA 3 08 Dec 20:01:23 20:03:53 14° 271° (W) 20:06:24 145.822/145.860
Oscar 11 08 Dec 20:03:55 20:08:12 70° 76° (ENE) 20:12:30 145.826/435.025
Cosmos 2491 08 Dec 20:04:21 20:08:12 14° 285° (WNW) 20:12:04 435.465 / 435.565
PCSat 08 Dec 20:11:04 20:16:29 74° 244° (WSW) 20:21:53 145.827
AIST 1 08 Dec 20:22:54 20:25:58 19° 288° (WNW) 20:29:04
PRISM 08 Dec 20:27:15 20:30:42 25° 96° (E) 20:34:08 437.425
ISS 08 Dec 20:27:33 20:30:22 25° 25° (NNE) 20:33:11 145.825
YUBILEINY 08 Dec 20:28:00 20:34:52 25° 293° (WNW) 20:41:50 435.215
HO-68 08 Dec 20:28:56 20:33:48 19° 269° (W) 20:38:42 435.675
STRAND 1 08 Dec 20:30:35 20:34:35 24° 295° (WNW) 20:38:33 437.568
UWE-3 08 Dec 20:33:23 20:37:31 31° 264° (W) 20:41:35 435.000/436.395/437.385
HUMSAT D 08 Dec 20:33:23 20:36:56 27° 70° (ENE) 20:40:26 437.325/437.525
ZACube-1 08 Dec 21:08:24 21:11:51 21° 266° (W) 21:15:17 437.345
DANDE 08 Dec 21:10:19 21:13:13 42° 262° (W) 21:16:50 436.750
FUNcube-1 08 Dec 21:14:30 21:17:47 20° 266° (W) 21:21:04 145.935
DELFI C3 08 Dec 21:33:02 21:36:27 29° 263° (W) 21:39:54 145.870
Cosmos 2504 08 Dec 21:37:58 21:43:34 19° 298° (WNW) 21:49:18 435.465 / 435.565
UNISAT 6 08 Dec 21:54:40 21:58:57 53° 100° (E) 22:03:08 437.425
PRISM 08 Dec 22:02:27 22:05:54 26° 291° (WNW) 22:09:22 437.425
ISS 08 Dec 22:03:48 22:07:00 45° 223° (SW) 22:10:09 145.825
HUMSAT D 08 Dec 22:09:05 22:12:29 24° 265° (W) 22:15:52 437.325/437.525
TIGRISAT 08 Dec 22:23:38 22:28:01 76° 284° (WNW) 22:32:17 435.000
ANTELSAT 08 Dec 22:25:57 22:30:19 68° 285° (WNW) 22:34:33 437.575/2403.000
AISAT 08 Dec 22:29:24 22:33:20 32° 70° (ENE) 22:37:19 437.250
Cosmos 2499 08 Dec 22:34:18 22:39:51 19° 78° (ENE) 22:45:31 435.465 / 435.565
ESTCUBE 1 08 Dec 22:35:30 22:39:59 88° 80° (E) 22:44:29 437.505/2401.250
PHONESAT 2.4 08 Dec 22:36:28 22:38:43 24° 155° (SSE) 22:40:57 2401.200-2431.200
POPSAT HIP 1 08 Dec 22:36:36 22:39:05 15° 92° (E) 22:41:33 437.405
CUBEBUG 1 08 Dec 22:46:39 22:50:59 71° 76° (ENE) 22:55:23 437.445
VELOX 1 08 Dec 23:05:32 23:09:56 77° 74° (ENE) 23:14:23 145.980
GONETS M04 08 Dec 23:08:33 23:15:41 29° 83° (E) 23:22:47
DX 1 08 Dec 23:08:39 23:12:46 43° 72° (ENE) 23:16:55 434.975-435.025
UKube-1 08 Dec 23:09:50 23:13:42 33° 70° (ENE) 23:17:33 .
SPROUT 08 Dec 23:15:24 23:19:38 63° 75° (ENE) 23:23:55 437.525
50 SAT 08 Dec 23:20:39 23:24:09 81° 258° (WSW) 23:27:41 437.505
JAS-2 08 Dec 23:22:29 23:27:43 76° 103° (ESE) 23:33:18 435.910
NANOSAT C BR1 08 Dec 23:27:37 23:31:46 56° 100° (E) 23:35:54 145.865
UNISAT 6 08 Dec 23:32:57 23:35:11 14° 296° (WNW) 23:37:23 437.425
QB50P2 08 Dec 23:36:32 23:40:48 84° 102° (ESE) 23:45:01 145.880/145.840
POLYITAN 1 08 Dec 23:36:59 23:41:14 79° 103° (ESE) 23:45:26 437.675
AO-85 08 Dec 23:47:04 23:49:49 15° 110° (ESE) 23:52:30 145.980
DUCHIFAT 1 08 Dec 23:48:07 23:52:21 90° 102° (ESE) 23:56:31 145.980
QB50P1 08 Dec 23:48:59 23:53:14 75° 285° (WNW) 23:57:25 145.935-145.965
AISAT 09 Dec 00:06:22 00:09:49 22° 265° (W) 00:13:19 437.250
POPSAT HIP 1 09 Dec 00:11:03 00:15:03 42° 288° (WNW) 00:19:02 437.405
PHONESAT 2.4 09 Dec 00:11:04 00:13:43 86° 179° (S) 00:16:22 2401.200-2431.200
SWISSCUBE 09 Dec 00:17:13 00:19:12 13° 61° (ENE) 00:21:11 437.505
BEESAT 09 Dec 00:21:02 00:22:54 12° 61° (ENE) 00:24:47 436.000
Cosmos 2499 09 Dec 00:23:06 00:31:43 87° 275° (W) 00:40:42 435.465 / 435.565
TISAT 1 09 Dec 00:25:56 00:30:07 62° 74° (ENE) 00:34:20 437.305
O/OREOS (USA 219) 09 Dec 00:29:48 00:33:54 34° 62° (ENE) 00:37:58 437.305
BUGSAT 1 09 Dec 00:32:04 00:36:16 77° 283° (WNW) 00:40:22 437.445
DX 1 09 Dec 00:46:27 00:49:09 16° 267° (W) 00:51:51 434.975-435.025
UKube-1 09 Dec 00:46:31 00:49:46 21° 265° (W) 00:53:02 .
ITUPSAT 1 09 Dec 00:48:45 00:52:27 23° 66° (ENE) 00:56:09 437.325
AUBIESAT-1 09 Dec 00:54:44 00:58:26 30° 64° (ENE) 01:02:19 437.475
SPROUT 09 Dec 00:54:59 00:55:58 11° 270° (W) 00:56:56 437.525
GONETS M04 09 Dec 01:03:23 01:11:55 58° 282° (WNW) 01:20:29
NANOSAT C BR1 09 Dec 01:05:07 01:06:59 13° 296° (WNW) 01:08:51 145.865
Oscar 19 09 Dec 01:08:35 01:13:41 53° 100° (E) 01:18:45 437.125/150
M-CUBED/EXP-1 PRIME 09 Dec 01:09:19 01:13:22 52° 68° (ENE) 01:17:44 437.505
JAS-2 09 Dec 01:09:52 01:12:15 13° 299° (WNW) 01:14:41 435.910
AO-85 09 Dec 01:24:58 01:29:52 64° 303° (WNW) 01:34:25 145.980
Gurwin Techsat 1B 09 Dec 01:30:33 01:35:38 44° 99° (E) 01:40:40 435.225
AO-7 09 Dec 01:44:58 01:46:47 11° 87° (E) 01:48:35 29.400- 29.500
PHONESAT 2.4 09 Dec 01:46:17 01:48:57 87° 19° (NNE) 01:51:35 2401.200-2431.200
ITAMSAT 1 09 Dec 01:46:21 01:48:30 12° 90° (E) 01:50:39 435.822/435.867
SWISSCUBE 09 Dec 01:51:36 01:56:21 74° 257° (WSW) 02:01:08 437.505
BEESAT 09 Dec 01:55:16 02:00:02 76° 257° (WSW) 02:04:49 436.000
TISAT 1 09 Dec 02:05:15 02:06:08 11° 270° (W) 02:07:01 437.305
O/OREOS (USA 219) 09 Dec 02:09:41 02:13:04 21° 259° (WSW) 02:16:25 437.305
Cosmos 2499 09 Dec 02:20:27 02:26:11 19° 298° (WNW) 02:32:03 435.465 / 435.565
ITUPSAT 1 09 Dec 02:25:37 02:30:03 37° 262° (W) 02:34:29 437.325
AUBIESAT-1 09 Dec 02:29:19 02:32:48 25° 261° (W) 02:36:28 437.475
MOZHAYETS 4 09 Dec 02:32:23 02:36:55 61° 74° (ENE) 02:41:26
SO-50 09 Dec 02:34:39 02:37:25 16° 41° (NE) 02:40:09 436.795
STARS 09 Dec 02:37:50 02:40:10 14° 63° (ENE) 02:42:30 437.465
KKS-1 09 Dec 02:39:15 02:43:10 31° 69° (ENE) 02:47:06 437.445
M-CUBED/EXP-1 PRIME 09 Dec 02:45:58 02:48:11 14° 265° (W) 02:50:30 437.505
CUBESAT XI-V 09 Dec 02:46:51 02:48:51 13° 62° (ENE) 02:50:51 437.345
Oscar 19 09 Dec 02:48:58 02:52:34 19° 297° (WNW) 02:56:10 437.125/150
AO-85 09 Dec 03:10:19 03:11:04 10° 321° (NW) 03:11:49 145.980
GONETS M04 09 Dec 03:10:36 03:10:55 10° 305° (NW) 03:11:15
Gurwin Techsat 1B 09 Dec 03:11:07 03:15:16 24° 295° (WNW) 03:19:25 435.225
PHONESAT 2.4 09 Dec 03:21:38 03:23:59 28° 203° (SSW) 03:26:19 2401.200-2431.200
ITAMSAT 1 09 Dec 03:23:19 03:28:30 74° 285° (WNW) 03:33:38 435.822/435.867
AO-7 09 Dec 03:32:36 03:40:58 67° 105° (ESE) 03:49:16 29.400- 29.500
BEESAT 3 09 Dec 03:51:48 03:55:39 66° 119° (ESE) 03:59:34 437.485
STARS 09 Dec 04:11:41 04:16:01 56° 259° (W) 04:20:25 437.465
MOZHAYETS 4 09 Dec 04:12:35 04:14:27 12° 270° (W) 04:16:19
SO-50 09 Dec 04:13:53 04:18:24 73° 241° (WSW) 04:22:49 436.795
KKS-1 09 Dec 04:16:06 04:19:43 24° 265° (W) 04:23:22 437.445
CUBESAT XI-V 09 Dec 04:21:05 04:25:39 67° 259° (W) 04:30:14 437.345
BEESAT 2 09 Dec 04:28:10 04:32:04 74° 120° (ESE) 04:36:03 435.950
BRITE-PL 09 Dec 04:33:47 04:39:00 40° 97° (E) 04:44:18 437.365/2234.400
YUBILEINY 09 Dec 04:40:04 04:47:50 33° 70° (ENE) 04:55:32 435.215
